Location: �mondeville
(49.4591°N, 1.3431°W)
Time: 05:37:46
(UTC+00:00)

USA 116 - Pass Details

Date: 22 October 2019
Orbit: 405 x 834 km, 97.9° (Epoch: 18 November)

Event Time Altitude Azimuth Distance (km) Brightness Sun altitude
Rises 05:01:56 0° 151° (SSE) 2,611 7.6 -16.1°
Reaches altitude 10° 05:04:09 10° 145° (SE) 1,669 6.6 -15.7°
Maximum altitude 05:07:33 45° 72° (ENE) 628 4.5 -15.2°
Drops below altitude 10° 05:10:41 10° 358° (N) 1,541 6.0 -14.7°
Sets 05:12:40 0° 352° (N) 2,383 6.9 -14.3°
